map of STM home
Great Circle Mapper logo
STM - Airport
Location
City:  Santarém, Pará, Brazil
Name:Santarém - Maestro Wilson Fonseca Airport
ICAO / IATA:SBSN / STM

Details
Type:Airport (Aerodrome, Airfield)
Use:Public/Civil, International (customs port of entry)
Latitude:2°25'21"S (-2.422430)
Longitude:54°47'34"W (-54.792788)
Datum:WGS 1984
Elevation:198 ft (60 m)
Variation:18.13°W (WMM2015 magnetic declination)
-0.08° annual change
Runways:1
Longest:7874 × 148 ft (2400 × 45 m), paved

Time
Time Zone:UTC-4
Local Time:

Weather
METAR:SBSN 291300Z 06010KT 9999 FEW020 29/24 Q1015
TAF:SBSN 291000Z 2912/3012 08005KT 9999 SCT015 TX31/2917Z TN23/3008Z
BECMG 2916/2918 SCT020 FEW025TCU
BECMG 2922/2924 13003KT FEW015
BECMG 3008/3010 08005KT
RMK PDZ

Related Locations
Nearby:
Farthest:MDC: 12368 mi / 19904 km
Manado [Sam Ratulangi], Sulawesi Island, ID

Find:

   beyond  
but within

Other Information
Maps:
NOTAMs:
Links:
Sources:

  
flag of Brazil
flag of Pará
  

Sectional Chart

Flight Planning
at skyvector.com

Satellite Image

Google Maps Satellite View

 

Copyright © 2004-2015 Karl L. Swartz. All rights reserved.
The Great Circle Mapper name and logo are trademarks of the Great Circle Mapper.
All other trademarks mentioned herein belong to their respective owners.
Please see credits for attibutions and further copyright information.

  Follow gcmap on Facebook Follow gcmap on Twitter Follow gcmap on Google+

hCard Microformat

Geo Microformat